ANZ99 NZAA-RJAA

Flight info

Callsign ANZ99
Flight time N/A
Altitude 32000
Route DUGAN R599 RUMUS/N0490F340 R599 SADIM DCT 24S170E DCT ELSAX DCT 15S167E 1221S16556E 10S165E 0835S16426E 05S163E 00N161E/N0490F360 0140N16000E 05N158E 10N155E DCT KERRY DCT 20N150E 2100N14925E/N0481F380 25N147E NOGAK A337 DAGDA/N0476F390 Y819 OLVEK/N0475F380 Y817 MENIX Y813 LUBLA
Aircraft B77W/H-SDE1E2E3FGHIJ2J3J4J5M1RWXY/LB1D1

Departure

Time 2026-05-04 10:19
Airport Auckland International Airport (NZAA)

Arrival

Time N/A
Airport Narita International Airport (RJAA)
Time Latitude Longitude Altitude Speed Heading
2026-05-04 09:52 -37.00864 174.78218 34 ft 0 kts 16°
2026-05-04 10:08 -37.00919 174.78154 34 ft 2 kts 87°
2026-05-04 10:08 -37.00918 174.78136 35 ft 2 kts 103°
2026-05-04 10:08 -37.00913 174.78119 35 ft 1 kts 118°
2026-05-04 10:08 -37.00914 174.78120 35 ft 2 kts 118°
2026-05-04 10:09 -37.00932 174.78160 33 ft 4 kts 120°
2026-05-04 10:09 -37.00940 174.78178 32 ft 0 kts 120°
2026-05-04 10:12 -37.00955 174.78206 29 ft 7 kts 127°
2026-05-04 10:12 -37.00967 174.78226 27 ft 3 kts 130°
2026-05-04 10:13 -37.00995 174.78256 25 ft 6 kts 143°
2026-05-04 10:13 -37.01040 174.78284 24 ft 6 kts 162°
2026-05-04 10:13 -37.01071 174.78278 25 ft 3 kts 207°
2026-05-04 10:13 -37.01091 174.78261 27 ft 4 kts 216°
2026-05-04 10:14 -37.01121 174.78224 30 ft 6 kts 243°
2026-05-04 10:14 -37.01141 174.78152 33 ft 11 kts 250°
2026-05-04 10:16 -37.01424 174.77136 33 ft 12 kts 237°
2026-05-04 10:16 -37.01471 174.77106 33 ft 0 kts 191°
2026-05-04 10:19 -37.01184 174.78694 35 ft 151 kts 71°
2026-05-04 10:19 -37.00779 174.80145 203 ft 193 kts 71°
2026-05-04 10:19 -37.00337 174.81717 986 ft 194 kts 71°
2026-05-04 10:19 -36.99914 174.83293 1654 ft 194 kts 70°
2026-05-04 10:20 -36.99451 174.84966 1910 ft 209 kts 69°
2026-05-04 10:20 -36.98958 174.86739 2161 ft 226 kts 70°
2026-05-04 10:20 -36.98429 174.88644 2509 ft 241 kts 70°
2026-05-04 10:20 -36.97873 174.90648 3100 ft 246 kts 70°
2026-05-04 10:21 -36.97311 174.92674 3740 ft 248 kts 70°
2026-05-04 10:21 -36.96747 174.94704 4412 ft 249 kts 70°
2026-05-04 10:21 -36.96164 174.96761 5028 ft 251 kts 66°
2026-05-04 10:21 -36.95203 174.98547 5598 ft 253 kts 43°
2026-05-04 10:22 -36.91921 175.00035 6716 ft 266 kts 358°
2026-05-04 10:22 -36.90122 174.99350 7224 ft 277 kts 332°
2026-05-04 10:22 -36.88598 174.97835 7809 ft 282 kts 320°
2026-05-04 10:23 -36.87191 174.96205 8369 ft 283 kts 321°
2026-05-04 10:23 -36.85732 174.94557 8915 ft 286 kts 321°
2026-05-04 10:25 -36.74506 174.81547 11168 ft 361 kts 319°
2026-05-04 10:25 -36.72653 174.79379 11452 ft 373 kts 319°
2026-05-04 10:25 -36.70733 174.77132 11963 ft 378 kts 319°
2026-05-04 10:25 -36.68828 174.74904 12542 ft 381 kts 319°
2026-05-04 10:26 -36.66872 174.72618 13166 ft 384 kts 319°
2026-05-04 10:26 -36.64919 174.70338 13757 ft 388 kts 319°
2026-05-04 10:26 -36.62947 174.68036 14384 ft 390 kts 319°
2026-05-04 10:26 -36.60947 174.65704 15043 ft 392 kts 319°
2026-05-04 10:27 -36.58966 174.63397 15682 ft 395 kts 319°
2026-05-04 10:27 -36.56931 174.61029 16310 ft 398 kts 319°
2026-05-04 10:27 -36.54918 174.58687 16934 ft 401 kts 319°
2026-05-04 10:27 -36.52847 174.56280 17559 ft 403 kts 319°
2026-05-04 10:28 -36.50797 174.53900 18145 ft 406 kts 319°
2026-05-04 10:28 -36.48657 174.51636 18694 ft 407 kts 326°
2026-05-04 10:28 -36.46243 174.49821 19203 ft 407 kts 335°
2026-05-04 10:28 -36.43595 174.48474 19736 ft 409 kts 341°
2026-05-04 10:29 -36.40892 174.47272 20288 ft 411 kts 342°
2026-05-04 10:29 -36.38203 174.46083 20799 ft 414 kts 341°
2026-05-04 10:29 -36.35459 174.44871 21301 ft 416 kts 341°
2026-05-04 10:29 -36.32745 174.43674 21777 ft 419 kts 341°
2026-05-04 10:30 -36.29989 174.42458 22249 ft 422 kts 341°
2026-05-04 10:30 -36.27205 174.41231 22708 ft 425 kts 341°
2026-05-04 10:30 -36.24396 174.39993 23142 ft 428 kts 341°
2026-05-04 10:30 -36.21579 174.38753 23584 ft 430 kts 341°
2026-05-04 10:31 -36.18742 174.37505 24041 ft 431 kts 340°
2026-05-04 10:31 -36.15924 174.36266 24470 ft 433 kts 340°
2026-05-04 10:32 -35.98626 174.28680 26957 ft 444 kts 340°
2026-05-04 10:33 -35.95698 174.27400 27332 ft 446 kts 340°
2026-05-04 10:33 -35.92734 174.26105 27749 ft 448 kts 340°
2026-05-04 10:33 -35.89813 174.24829 28141 ft 449 kts 340°
2026-05-04 10:33 -35.86818 174.23523 28520 ft 451 kts 340°
2026-05-04 10:34 -35.83836 174.22223 28914 ft 453 kts 340°
2026-05-04 10:34 -35.80823 174.20911 29285 ft 455 kts 339°
2026-05-04 10:34 -35.77860 174.19621 29636 ft 457 kts 339°
2026-05-04 10:34 -35.74813 174.18295 30070 ft 457 kts 339°
2026-05-04 10:35 -35.71834 174.17001 30641 ft 454 kts 339°
2026-05-04 10:35 -35.68840 174.15701 31257 ft 450 kts 339°
2026-05-04 10:35 -35.65901 174.14427 31798 ft 447 kts 339°
2026-05-04 10:35 -35.62960 174.13153 32278 ft 445 kts 339°
2026-05-04 10:36 -35.60000 174.11870 32479 ft 448 kts 339°
2026-05-04 10:36 -35.57014 174.10577 32485 ft 447 kts 339°
2026-05-04 10:36 -35.51134 174.08037 32477 ft 444 kts 339°
2026-05-04 10:37 -35.45240 174.05492 32477 ft 445 kts 339°
2026-05-04 10:37 -35.39366 174.02960 32476 ft 443 kts 339°
2026-05-04 10:39 -35.18786 173.94122 32468 ft 443 kts 339°
2026-05-04 10:40 -35.12918 173.91611 32461 ft 442 kts 340°
2026-05-04 10:40 -35.07041 173.89101 32468 ft 443 kts 340°
2026-05-04 10:41 -35.01179 173.86598 32464 ft 442 kts 340°
2026-05-04 10:41 -34.95365 173.84122 32455 ft 443 kts 340°
2026-05-04 10:42 -34.89516 173.81635 32448 ft 443 kts 340°
2026-05-04 10:42 -34.83659 173.79146 32466 ft 445 kts 340°
2026-05-04 10:43 -34.77835 173.76677 32469 ft 444 kts 340°
2026-05-04 10:45 -34.54378 173.66766 32452 ft 447 kts 340°
2026-05-04 10:45 -34.48432 173.64264 32450 ft 448 kts 340°
2026-05-04 10:46 -34.42547 173.61791 32447 ft 448 kts 340°
2026-05-04 10:46 -34.36626 173.59305 32447 ft 448 kts 340°
2026-05-04 10:47 -34.30719 173.56830 32440 ft 448 kts 340°
2026-05-04 10:47 -34.24768 173.54341 32442 ft 449 kts 340°
2026-05-04 10:49 -34.01009 173.44437 32429 ft 450 kts 340°
2026-05-04 10:50 -33.95095 173.41980 32432 ft 450 kts 340°